EW1708 Weather Reports


Display with metric or nautical units.
time (UTC)temp
F
wind
direction
speed
MPH
gust
MPH
rain 1hr
in
rain 24hr
in
rain mn
in
humidity
%
barometer
mb
20260505004035 41 306 17.0 26.0 0.00 0.00 0.00 54 1010.0
20260505003043 41 319 17.0 26.0 0.00 0.00 0.00 55 1009.9
20260505002054 41 317 15.0 25.0 0.00 0.00 0.00 56 1010.0
20260505001041 41 330 14.0 30.0 0.00 0.00 0.00 58 1009.9
20260505000031 41 336 18.0 30.0 0.00 0.00 0.00 58 1009.9
20260504235036 41 323 14.0 24.0 0.00 0.00 0.00 55 1009.8
20260504234006 41 336 16.0 30.0 0.00 0.00 0.00 56 1009.8
20260504233015 41 321 19.0 30.0 0.00 0.00 0.00 51 1009.7
20260504231952 41 0 19.0 28.0 0.00 0.00 0.00 52 1009.4
20260504230931 41 300 18.0 28.0 0.00 0.00 0.00 51 1009.3
20260504225858 41 306 19.0 29.0 0.00 0.00 0.00 51 1009.2
20260504223724 41 313 18.0 31.0 0.00 0.00 0.00 51 1009.2
20260504222720 41 347 21.0 31.0 0.00 0.00 0.00 51 1009.0
20260504221718 42 323 22.0 33.0 0.00 0.00 0.00 49 1009.1
20260504220719 42 319 22.0 33.0 0.00 0.00 0.00 49 1009.0
20260504215725 42 294 23.0 31.0 0.00 0.00 0.00 48 1008.8
20260504214707 42 327 21.0 32.0 0.00 0.00 0.00 48 1008.8
20260504213701 42 325 23.0 32.0 0.00 0.00 0.00 47 1008.8
20260504212710 42 319 20.0 31.0 0.00 0.00 0.00 47 1008.7
20260504211637 42 312 20.0 35.0 0.00 0.00 0.00 47 1008.6
20260504210630 42 310 21.0 35.0 0.00 0.00 0.00 49 1008.5
20260504205616 42 300 20.0 31.0 0.00 0.00 0.00 47 1008.5
20260504204620 42 329 20.0 31.0 0.00 0.00 0.00 49 1008.5
20260504203641 43 291 19.0 33.0 0.00 0.00 0.00 48 1008.5
20260504202704 43 0 22.0 33.0 0.00 0.00 0.00 46 1008.4
20260504201728 42 323 21.0 33.0 0.00 0.00 0.00 48 1008.3
20260504200711 42 319 18.0 30.0 0.00 0.00 0.00 49 1008.4
20260504195705 42 318 19.0 31.0 0.00 0.00 0.00 47 1008.2
20260504194647 42 0 17.0 30.0 0.00 0.00 0.00 48 1008.2
20260504193651 42 0 16.0 26.0 0.00 0.00 0.00 47 1008.1
20260504192646 42 0 18.0 28.0 0.00 0.00 0.00 49 1008.1
20260504191659 41 313 18.0 32.0 0.00 0.00 0.00 50 1008.1
20260504185556 42 0 18.0 31.0 0.00 0.00 0.00 51 1007.8
20260504184621 42 348 18.0 30.0 0.00 0.00 0.00 48 1007.8
20260504183631 41 310 19.0 31.0 0.00 0.00 0.00 52 1007.8
20260504182614 40 321 17.0 31.0 0.00 0.00 0.00 52 1007.8
20260504181549 40 0 20.0 32.0 0.00 0.00 0.00 54 1007.8
20260504180605 39 333 20.0 33.0 0.00 0.00 0.00 56 1007.8
20260504175544 40 323 23.0 33.0 0.00 0.00 0.00 56 1007.7
20260504174606 39 0 21.0 32.0 0.00 0.00 0.00 58 1007.7
20260504173600 39 341 20.0 32.0 0.00 0.00 0.00 58 1007.6
20260504172550 39 302 21.0 30.0 0.00 0.00 0.00 58 1007.4
20260504171552 39 313 19.0 31.0 0.00 0.00 0.00 59 1007.3
20260504170612 38 331 20.0 31.0 0.00 0.00 0.00 62 1007.3
20260504150442 39 321 17.0 26.0 0.00 0.00 0.00 71 1006.0
20260504141251 40 313 23.0 33.0 0.00 0.00 0.00 66 1005.5
20260504130131 38 280 13.0 19.0 0.00 0.00 0.00 74 1005.2
20260504081618 37 321 10.0 14.0 0.00 0.00 0.00 77 1002.9
20260504080619 37 0 7.0 14.0 0.00 0.00 0.00 76 1002.7
20260504070347 41 0 11.0 19.0 0.00 0.00 0.00 67 1002.0
20260504050354 49 13 16.0 27.0 0.00 0.00 0.00 51 1000.6
20260504043042 52 338 15.0 28.0 0.00 0.00 0.00 47 1000.6
20260504042054 53 0 18.0 29.0 0.00 0.00 0.00 46 1000.6
20260504035913 56 0 16.0 26.0 0.00 0.00 0.00 39 999.9
20260504034847 56 328 16.0 25.0 0.00 0.00 0.00 39 999.3
20260504033853 56 328 16.0 29.0 0.00 0.00 0.00 38 999.1
20260504032855 57 320 17.0 29.0 0.00 0.00 0.00 38 998.9
20260504031830 57 0 16.0 26.0 0.00 0.00 0.00 39 998.8
20260504030827 56 342 11.0 19.0 0.00 0.00 0.00 41 998.6
20260504025836 57 333 12.0 25.0 0.00 0.00 0.00 41 998.4
20260504024813 58 0 13.0 27.0 0.00 0.00 0.00 42 998.5
20260504023823 58 0 15.0 27.0 0.00 0.00 0.00 43 998.0
20260504021643 57 0 14.0 26.0 0.00 0.00 0.00 47 997.9
20260504015537 57 13 16.0 30.0 0.00 0.00 0.00 51 997.8
20260504014547 58 17 25.0 37.0 0.00 0.00 0.00 47 997.7
20260504013548 60 13 22.0 37.0 0.00 0.00 0.00 42 997.5
20260504012607 61 15 21.0 41.0 0.00 0.00 0.00 40 997.1
20260504011550 62 346 25.0 41.0 0.00 0.00 0.00 39 997.0
20260504005430 64 13 21.0 32.0 0.00 0.00 0.00 37 996.4